Tracking 19832 objects as of 25-Aug-2019
HD Live streaming from Space Station
objects crossing your sky now

SL-16 DEB

Track SL-16 DEB now!
10-day predictions


NORAD ID: 39886
Int'l Code: 1993-016BL
Perigee: 659.7 km
Apogee: 751.3 km
Inclination: 71.0 °
Period: 98.7 minutes
Semi major axis: 7076 km
RCS: 0.0136 m2 (small)
Launch date: March 26, 1993
Source: Commonwealth of Independent States (former USSR) (CIS)
Launch site: TYURATAM MISSILE AND SPACE COMPLEX (TTMTR)

Note: This is SATELLITE DEBRIS
aabbcc
Your satellite tracking list
Your tracking list is empty




NASA's NSSDC Master Catalog

Two Line Element Set (TLE):
1 39886U 93016BL  19235.28580959  .00000236  00000-0  62008-4 0  9990
2 39886  71.0140 210.2467 0064679 356.4847   3.5834 14.58397638860843
Source of the keplerian elements: AFSPC